ARG1141 LIRF-SAEZ

Flight info

Callsign ARG1141
Flight time N/A
Altitude 19000
Route ESINO M126 QUENN/N0484F270 DCT CAR/N0491F280 DCT DOPEL/N0501F290 UG729 KAWKA UG14 CSO/N0492F280 UG859 GHA UG864 CHAMI/N0505F300 UG864 BRENA UA854 ARDAR UR975 ANITI UA302 TURUP DCT SEROD/N0509F320 DCT KODOS UL206 ILKOX/N0497F340 UL206 VRI UZ44 ADA UM400 BITAK UN857 NELOX UM534 DADUT UN741 PAPIX PAPIX7A
Aircraft B77W/H-SDE1E2E3FGHIJ2J3J4J5M1RWXY/LB1D1

Departure

Time 2026-05-06 04:11
Airport Rome–Fiumicino Leonardo da Vinci International Airport (LIRF)

Arrival

Time N/A
Airport Ezeiza International Airport - Ministro Pistarini (SAEZ)
Time Latitude Longitude Altitude Speed Heading
2026-05-06 03:08 41.79970 12.25232 20 ft 0 kts 166°
2026-05-06 04:04 41.79993 12.25225 20 ft 4 kts 167°
2026-05-06 04:04 41.80019 12.25217 22 ft 4 kts 167°
2026-05-06 04:04 41.80043 12.25210 23 ft 4 kts 159°
2026-05-06 04:04 41.80058 12.25201 20 ft 4 kts 116°
2026-05-06 04:05 41.80060 12.25192 20 ft 4 kts 64°
2026-05-06 04:05 41.80047 12.25161 20 ft 4 kts 62°
2026-05-06 04:05 41.80038 12.25135 20 ft 0 kts 71°
2026-05-06 04:07 41.80047 12.25162 21 ft 11 kts 65°
2026-05-06 04:07 41.80120 12.25307 20 ft 22 kts 48°
2026-05-06 04:07 41.80246 12.25421 22 ft 22 kts 27°
2026-05-06 04:07 41.80342 12.25570 20 ft 22 kts 68°
2026-05-06 04:08 41.80399 12.25761 20 ft 22 kts 68°
2026-05-06 04:08 41.80452 12.25953 20 ft 22 kts 70°
2026-05-06 04:08 41.80503 12.26146 22 ft 22 kts 71°
2026-05-06 04:08 41.80555 12.26338 21 ft 22 kts 70°
2026-05-06 04:09 41.80608 12.26531 20 ft 22 kts 69°
2026-05-06 04:09 41.80661 12.26720 20 ft 22 kts 69°
2026-05-06 04:09 41.80715 12.26911 20 ft 22 kts 69°
2026-05-06 04:09 41.80781 12.27093 21 ft 22 kts 38°
2026-05-06 04:10 41.80928 12.27087 21 ft 22 kts 332°
2026-05-06 04:10 41.80946 12.26883 18 ft 32 kts 250°
2026-05-06 04:10 41.80821 12.26434 24 ft 82 kts 249°
2026-05-06 04:10 41.80542 12.25430 24 ft 147 kts 250°
2026-05-06 04:11 41.80116 12.23884 26 ft 207 kts 249°
2026-05-06 04:11 41.79542 12.21917 481 ft 234 kts 248°
2026-05-06 04:11 41.78969 12.19923 1889 ft 229 kts 248°
2026-05-06 04:11 41.78445 12.17888 2982 ft 235 kts 254°
2026-05-06 04:12 41.78262 12.15647 3468 ft 249 kts 277°
2026-05-06 04:12 41.78568 12.13348 3803 ft 253 kts 270°
2026-05-06 04:12 41.78084 12.11091 4050 ft 258 kts 231°
2026-05-06 04:12 41.76676 12.09690 4456 ft 254 kts 198°
2026-05-06 04:13 41.75045 12.08882 4878 ft 254 kts 207°
2026-05-06 04:13 41.73538 12.07635 5318 ft 257 kts 216°
2026-05-06 04:13 41.72140 12.06156 5878 ft 256 kts 219°
2026-05-06 04:13 41.70701 12.04787 6279 ft 255 kts 200°
2026-05-06 04:14 41.68945 12.04361 6605 ft 258 kts 181°
2026-05-06 04:14 41.67140 12.04374 7016 ft 261 kts 181°
2026-05-06 04:14 41.65318 12.04377 7496 ft 261 kts 181°
2026-05-06 04:14 41.63501 12.04378 7978 ft 261 kts 182°
2026-05-06 04:15 41.61732 12.03924 8242 ft 261 kts 210°
2026-05-06 04:15 41.60269 12.02492 8527 ft 262 kts 219°
2026-05-06 04:15 41.58859 12.00983 8954 ft 264 kts 219°
2026-05-06 04:15 41.57419 11.99463 9416 ft 264 kts 218°
2026-05-06 04:16 41.55979 11.97941 9859 ft 264 kts 219°
2026-05-06 04:16 41.54536 11.96414 10284 ft 265 kts 219°
2026-05-06 04:16 41.53084 11.94878 10640 ft 271 kts 219°
2026-05-06 04:16 41.51566 11.93272 10810 ft 285 kts 219°
2026-05-06 04:17 41.49965 11.91581 10916 ft 302 kts 219°
2026-05-06 04:17 41.48275 11.89796 11078 ft 319 kts 218°
2026-05-06 04:17 41.46482 11.87908 11227 ft 337 kts 218°
2026-05-06 04:17 41.44597 11.85920 11435 ft 352 kts 218°
2026-05-06 04:18 41.42648 11.83864 11870 ft 361 kts 218°
2026-05-06 04:18 41.40660 11.81775 12476 ft 365 kts 218°
2026-05-06 04:18 41.38688 11.79702 13156 ft 367 kts 219°
2026-05-06 04:18 41.36676 11.77588 13837 ft 369 kts 218°
2026-05-06 04:19 41.34654 11.75466 14504 ft 371 kts 219°
2026-05-06 04:19 41.32618 11.73324 15103 ft 375 kts 219°
2026-05-06 04:19 41.30561 11.71162 15698 ft 378 kts 219°
2026-05-06 04:19 41.28484 11.68982 16295 ft 381 kts 219°
2026-05-06 04:20 41.26397 11.66795 16901 ft 384 kts 219°
2026-05-06 04:20 41.24290 11.64588 17470 ft 386 kts 219°
2026-05-06 04:20 41.22164 11.62362 18010 ft 390 kts 219°
2026-05-06 04:20 41.20055 11.60158 18561 ft 392 kts 219°
2026-05-06 04:21 41.17901 11.57906 19104 ft 395 kts 219°
2026-05-06 04:21 41.15735 11.55645 19650 ft 397 kts 219°
2026-05-06 04:21 41.13555 11.53371 20154 ft 400 kts 219°
2026-05-06 04:21 41.11362 11.51085 20668 ft 402 kts 219°
2026-05-06 04:22 41.09143 11.48775 21141 ft 405 kts 220°
2026-05-06 04:22 41.06918 11.46461 21642 ft 407 kts 220°
2026-05-06 04:22 41.04705 11.44161 22083 ft 410 kts 220°
2026-05-06 04:23 41.00188 11.39470 22983 ft 414 kts 220°
2026-05-06 04:23 40.97913 11.37111 23426 ft 416 kts 220°
2026-05-06 04:23 40.95624 11.34743 23849 ft 418 kts 220°
2026-05-06 04:23 40.93326 11.32363 24272 ft 420 kts 220°
2026-05-06 04:24 40.91017 11.29975 24674 ft 422 kts 220°
2026-05-06 04:24 40.88715 11.27596 25038 ft 425 kts 220°
2026-05-06 04:24 40.86375 11.25181 25408 ft 428 kts 220°
2026-05-06 04:24 40.84012 11.22746 25758 ft 430 kts 220°
2026-05-06 04:25 40.81641 11.20305 26080 ft 433 kts 220°
2026-05-06 04:25 40.79253 11.17857 26416 ft 436 kts 220°
2026-05-06 04:25 40.76849 11.15399 26768 ft 437 kts 220°
2026-05-06 04:25 40.74436 11.12937 27088 ft 439 kts 220°
2026-05-06 04:26 40.72037 11.10491 27413 ft 441 kts 220°
2026-05-06 04:26 40.69602 11.08009 27740 ft 442 kts 220°
2026-05-06 04:26 40.67162 11.05523 28032 ft 444 kts 220°
2026-05-06 04:26 40.64709 11.03026 28306 ft 446 kts 220°
2026-05-06 04:27 40.62240 11.00513 28563 ft 448 kts 220°
2026-05-06 04:27 40.60597 10.98842 28736 ft 449 kts 220°
2026-05-06 04:27 40.58112 10.96316 28995 ft 451 kts 220°
2026-05-06 04:27 40.54815 10.92973 29298 ft 453 kts 219°
2026-05-06 04:28 40.53121 10.91256 29450 ft 454 kts 219°
2026-05-06 04:28 40.50613 10.88715 29673 ft 455 kts 219°
2026-05-06 04:28 40.48101 10.86174 29830 ft 457 kts 219°
2026-05-06 04:29 40.43086 10.81109 29930 ft 457 kts 219°
2026-05-06 04:29 40.38040 10.76019 29937 ft 456 kts 219°
2026-05-06 04:30 40.32996 10.70941 29948 ft 457 kts 219°
2026-05-06 04:30 40.27957 10.65879 29938 ft 457 kts 219°
2026-05-06 04:31 40.22909 10.60816 29946 ft 456 kts 219°
2026-05-06 04:31 40.17891 10.55791 29957 ft 456 kts 219°
2026-05-06 04:32 40.12850 10.50753 29951 ft 456 kts 219°
2026-05-06 04:32 40.07804 10.45710 29955 ft 456 kts 219°
2026-05-06 04:33 40.02763 10.40677 29952 ft 456 kts 219°
2026-05-06 04:33 39.97750 10.35680 29944 ft 456 kts 219°
2026-05-06 04:34 39.92702 10.30660 29946 ft 457 kts 219°
2026-05-06 04:34 39.87647 10.25643 29943 ft 457 kts 219°
2026-05-06 04:35 39.82590 10.20633 29944 ft 457 kts 219°
2026-05-06 04:35 39.77523 10.15623 29944 ft 457 kts 219°
2026-05-06 04:36 39.72481 10.10646 29944 ft 457 kts 219°
2026-05-06 04:36 39.67410 10.05649 29945 ft 457 kts 219°
2026-05-06 04:37 39.62342 10.00669 29944 ft 457 kts 219°
2026-05-06 04:37 39.57304 9.95724 29945 ft 456 kts 218°
2026-05-06 04:38 39.52222 9.90747 29948 ft 457 kts 218°
2026-05-06 04:38 39.47145 9.85784 29942 ft 457 kts 218°
2026-05-06 04:39 39.42097 9.80857 29945 ft 457 kts 218°
2026-05-06 04:39 39.37006 9.75898 29945 ft 457 kts 218°
2026-05-06 04:40 39.31915 9.70948 29945 ft 458 kts 218°
2026-05-06 04:40 39.26843 9.66025 29930 ft 458 kts 218°
2026-05-06 04:41 39.21733 9.61074 29932 ft 459 kts 218°
2026-05-06 04:41 39.16619 9.56128 29939 ft 459 kts 218°
2026-05-06 04:42 39.11503 9.51188 29933 ft 459 kts 218°
2026-05-06 04:42 39.06565 9.45958 29934 ft 459 kts 221°
2026-05-06 04:43 39.01680 9.40655 29935 ft 459 kts 221°
2026-05-06 04:43 38.96779 9.35357 29935 ft 460 kts 221°
2026-05-06 04:44 38.91885 9.30089 29936 ft 460 kts 220°
2026-05-06 04:44 38.86967 9.24810 29936 ft 460 kts 220°
2026-05-06 04:45 38.82077 9.19574 29935 ft 460 kts 220°
2026-05-06 04:45 38.77145 9.14300 29934 ft 460 kts 220°
2026-05-06 04:46 38.72252 9.09076 29935 ft 460 kts 220°
2026-05-06 04:46 38.67333 9.03830 29936 ft 460 kts 220°
2026-05-06 04:47 38.62400 8.98587 29926 ft 460 kts 220°
2026-05-06 04:47 38.57476 8.93358 29930 ft 460 kts 220°
2026-05-06 04:48 38.52542 8.88130 29935 ft 459 kts 220°
2026-05-06 04:48 38.47651 8.82962 29935 ft 459 kts 220°
2026-05-06 04:49 38.42713 8.77746 29937 ft 459 kts 220°
2026-05-06 04:49 38.37790 8.72556 29934 ft 459 kts 220°
2026-05-06 04:50 38.32867 8.67375 29924 ft 459 kts 220°
2026-05-06 04:50 38.27970 8.62232 29929 ft 458 kts 220°
2026-05-06 04:51 38.23049 8.57070 29921 ft 458 kts 220°
2026-05-06 04:51 38.18129 8.51917 29915 ft 458 kts 220°
2026-05-06 04:52 38.13183 8.46798 29917 ft 457 kts 219°
2026-05-06 04:52 38.08206 8.41753 29916 ft 457 kts 219°
2026-05-06 04:53 38.03263 8.36738 29916 ft 457 kts 219°
2026-05-06 04:53 37.98291 8.31694 29918 ft 457 kts 219°
2026-05-06 04:54 37.93351 8.26600 29912 ft 458 kts 220°
2026-05-06 04:54 37.88424 8.21460 29907 ft 457 kts 220°
2026-05-06 04:55 37.83534 8.16372 29908 ft 457 kts 220°
2026-05-06 04:55 37.78602 8.11260 29907 ft 457 kts 220°
2026-05-06 04:56 37.73701 8.06194 29911 ft 457 kts 220°
2026-05-06 04:56 37.68767 8.01104 29906 ft 458 kts 220°
2026-05-06 04:57 37.63819 7.96009 29909 ft 457 kts 220°
2026-05-06 04:57 37.58904 7.90957 29898 ft 457 kts 220°
2026-05-06 04:58 37.53978 7.85900 29900 ft 457 kts 220°
2026-05-06 04:58 37.49045 7.80847 29897 ft 457 kts 220°
2026-05-06 04:59 37.44100 7.75790 29898 ft 457 kts 220°
2026-05-06 04:59 37.39166 7.70753 29898 ft 458 kts 220°
2026-05-06 05:00 37.34220 7.65711 29901 ft 457 kts 220°
2026-05-06 05:00 37.29308 7.60715 29898 ft 457 kts 220°
2026-05-06 05:01 37.24356 7.55689 29898 ft 457 kts 220°
2026-05-06 05:01 37.19406 7.50669 29900 ft 457 kts 220°
2026-05-06 05:02 37.14448 7.45650 29897 ft 458 kts 220°
2026-05-06 05:02 37.09489 7.40640 29899 ft 458 kts 220°
2026-05-06 05:03 37.04522 7.35632 29901 ft 457 kts 221°
2026-05-06 05:03 36.99597 7.30673 29898 ft 457 kts 221°
2026-05-06 05:04 36.94636 7.25687 29900 ft 458 kts 221°
2026-05-06 05:04 36.89670 7.20704 29910 ft 458 kts 221°
2026-05-06 05:05 36.84702 7.15728 29909 ft 458 kts 221°
2026-05-06 05:05 36.79728 7.10755 29912 ft 457 kts 221°
2026-05-06 05:06 36.74750 7.05786 29922 ft 458 kts 221°
2026-05-06 05:06 36.69779 7.00833 29935 ft 457 kts 221°
2026-05-06 05:07 36.64841 6.95921 29931 ft 458 kts 221°
2026-05-06 05:07 36.59869 6.90982 29945 ft 457 kts 221°
2026-05-06 05:08 36.54893 6.86047 29958 ft 457 kts 221°
2026-05-06 05:08 36.49919 6.81124 29953 ft 456 kts 221°
2026-05-06 05:09 36.44948 6.76213 29963 ft 456 kts 221°
2026-05-06 05:09 36.39978 6.71310 29966 ft 456 kts 221°
2026-05-06 05:10 36.35010 6.66415 29964 ft 455 kts 221°
2026-05-06 05:10 36.29897 6.61750 29964 ft 459 kts 215°
2026-05-06 05:11 36.24204 6.58112 29984 ft 463 kts 206°
2026-05-06 05:11 36.18255 6.55133 29992 ft 463 kts 206°
2026-05-06 05:12 36.12278 6.52136 29991 ft 463 kts 206°
2026-05-06 05:12 36.06323 6.49122 29985 ft 462 kts 207°
2026-05-06 05:13 36.00367 6.46102 29997 ft 463 kts 207°
2026-05-06 05:13 35.94402 6.43081 29999 ft 463 kts 207°
2026-05-06 05:14 35.88424 6.40059 29996 ft 463 kts 207°
2026-05-06 05:14 35.82490 6.37065 30017 ft 463 kts 207°
2026-05-06 05:15 35.76531 6.34031 30016 ft 462 kts 209°
2026-05-06 05:15 35.70735 6.30638 30018 ft 461 kts 210°
2026-05-06 05:16 35.65926 6.27782 30020 ft 461 kts 210°
2026-05-06 05:16 35.60136 6.24358 30023 ft 462 kts 210°
2026-05-06 05:17 35.53379 6.20388 30014 ft 461 kts 210°
2026-05-06 05:17 35.48556 6.17562 29993 ft 461 kts 211°
2026-05-06 05:18 35.41804 6.13612 30014 ft 463 kts 210°
2026-05-06 05:18 35.36933 6.10765 30023 ft 463 kts 211°
2026-05-06 05:19 35.31111 6.07369 30000 ft 463 kts 211°
2026-05-06 05:19 35.25329 6.03998 29991 ft 463 kts 211°
2026-05-06 05:20 35.19505 6.00613 29962 ft 463 kts 211°
2026-05-06 05:20 35.13680 5.97233 29925 ft 462 kts 211°
2026-05-06 05:21 35.07875 5.93870 29900 ft 461 kts 211°
2026-05-06 05:21 35.02114 5.90534 29861 ft 461 kts 211°
2026-05-06 05:22 34.96303 5.87176 29849 ft 462 kts 211°
2026-05-06 05:22 34.90480 5.83815 29832 ft 463 kts 211°
2026-05-06 05:23 34.84646 5.80453 29808 ft 463 kts 211°
2026-05-06 05:23 34.76047 5.75153 29804 ft 457 kts 219°
2026-05-06 05:24 34.70866 5.70684 29808 ft 456 kts 221°
2026-05-06 05:24 34.65716 5.66249 29804 ft 456 kts 221°
2026-05-06 05:25 34.60515 5.61812 29810 ft 456 kts 221°
2026-05-06 05:25 34.55323 5.57388 29804 ft 456 kts 221°
2026-05-06 05:26 34.50115 5.52966 29801 ft 456 kts 221°
2026-05-06 05:26 34.44916 5.48547 29801 ft 456 kts 221°
2026-05-06 05:27 34.39740 5.44168 29795 ft 456 kts 221°
2026-05-06 05:27 34.34539 5.39766 29798 ft 456 kts 221°
2026-05-06 05:28 34.29323 5.35358 29793 ft 455 kts 221°
2026-05-06 05:28 34.24120 5.30966 29793 ft 456 kts 221°
2026-05-06 05:29 34.13946 5.22397 29788 ft 454 kts 221°
2026-05-06 05:30 34.08745 5.18029 29786 ft 455 kts 221°
2026-05-06 05:30 34.03550 5.13674 29780 ft 455 kts 221°
2026-05-06 05:31 33.98364 5.09332 29778 ft 453 kts 221°
2026-05-06 05:31 33.93179 5.04993 29779 ft 453 kts 221°
2026-05-06 05:32 33.87995 5.00665 29778 ft 453 kts 221°
2026-05-06 05:32 33.82838 4.96386 29782 ft 453 kts 221°
2026-05-06 05:33 33.77636 4.92102 29773 ft 452 kts 221°
2026-05-06 05:33 33.72444 4.87827 29789 ft 452 kts 221°
2026-05-06 05:34 33.67258 4.83559 29789 ft 452 kts 221°
2026-05-06 05:34 33.62085 4.79306 29787 ft 451 kts 221°
2026-05-06 05:35 33.56907 4.75056 29793 ft 451 kts 221°
2026-05-06 05:35 33.51748 4.70830 29799 ft 451 kts 221°
2026-05-06 05:36 33.46533 4.66557 29786 ft 451 kts 221°
2026-05-06 05:36 33.41353 4.62326 29775 ft 451 kts 221°
2026-05-06 05:37 33.36199 4.58119 29774 ft 451 kts 221°
2026-05-06 05:37 33.30994 4.53881 29776 ft 451 kts 221°
2026-05-06 05:38 33.25790 4.49646 29779 ft 451 kts 221°
2026-05-06 05:38 33.20608 4.45435 29786 ft 451 kts 221°
2026-05-06 05:39 33.15431 4.41234 29790 ft 452 kts 221°
2026-05-06 05:39 33.10233 4.36988 29783 ft 451 kts 221°
2026-05-06 05:40 33.05132 4.32691 29785 ft 450 kts 222°
2026-05-06 05:40 33.00001 4.28353 29785 ft 451 kts 222°
2026-05-06 05:41 32.94896 4.24058 29787 ft 451 kts 222°
2026-05-06 05:41 32.89765 4.19760 29787 ft 451 kts 222°
2026-05-06 05:42 32.84638 4.15469 29784 ft 451 kts 221°
2026-05-06 05:42 32.79521 4.11195 29789 ft 451 kts 221°
2026-05-06 05:43 32.74386 4.06912 29797 ft 451 kts 222°
2026-05-06 05:43 32.69237 4.02623 29796 ft 451 kts 222°
2026-05-06 05:44 32.64116 3.98363 29804 ft 450 kts 221°
2026-05-06 05:44 32.58977 3.94096 29793 ft 447 kts 221°
2026-05-06 05:45 32.53912 3.89895 29798 ft 448 kts 221°
2026-05-06 05:45 32.48767 3.85628 29807 ft 449 kts 221°
2026-05-06 05:46 32.43672 3.81413 29805 ft 449 kts 221°
2026-05-06 05:46 32.38665 3.77062 29804 ft 444 kts 226°
2026-05-06 05:47 32.34217 3.72036 29812 ft 442 kts 230°
2026-05-06 05:47 32.29788 3.66947 29803 ft 443 kts 230°
2026-05-06 05:48 32.25385 3.61927 29809 ft 442 kts 230°
2026-05-06 05:48 32.20952 3.56889 29808 ft 442 kts 230°
2026-05-06 05:49 32.16508 3.51836 29801 ft 442 kts 230°
2026-05-06 05:49 32.12088 3.46819 29799 ft 442 kts 230°
2026-05-06 05:50 32.07663 3.41809 29795 ft 441 kts 230°
2026-05-06 05:50 32.03232 3.36799 29793 ft 441 kts 230°
2026-05-06 05:51 31.98788 3.31775 29798 ft 441 kts 229°
2026-05-06 05:51 31.94367 3.26786 29797 ft 443 kts 229°
2026-05-06 05:52 31.89917 3.21773 29801 ft 442 kts 229°
2026-05-06 05:52 31.85456 3.16754 29802 ft 442 kts 229°
2026-05-06 05:53 31.81016 3.11766 29798 ft 442 kts 229°
2026-05-06 05:53 31.76588 3.06798 29798 ft 441 kts 229°
2026-05-06 05:54 31.72154 3.01830 29797 ft 441 kts 229°
2026-05-06 05:54 31.67683 2.96830 29799 ft 441 kts 229°
2026-05-06 05:55 31.63259 2.91886 29807 ft 440 kts 229°
2026-05-06 05:55 31.58860 2.86976 29800 ft 440 kts 229°
2026-05-06 05:56 31.54401 2.82010 29806 ft 439 kts 229°
2026-05-06 05:56 31.49978 2.77088 29796 ft 439 kts 229°
2026-05-06 05:57 31.45561 2.72178 29802 ft 439 kts 229°
2026-05-06 05:57 31.41133 2.67264 29794 ft 439 kts 229°
2026-05-06 05:58 31.36691 2.62343 29795 ft 439 kts 229°
2026-05-06 05:58 31.32249 2.57426 29796 ft 439 kts 229°
2026-05-06 05:59 31.27816 2.52526 29800 ft 439 kts 229°
2026-05-06 05:59 31.23393 2.47643 29792 ft 439 kts 229°
2026-05-06 06:00 31.18973 2.42688 29791 ft 439 kts 229°
2026-05-06 06:00 31.14598 2.37753 29786 ft 439 kts 229°
2026-05-06 06:01 31.10211 2.32816 29790 ft 439 kts 229°
2026-05-06 06:01 31.05824 2.27893 29785 ft 436 kts 229°
2026-05-06 06:02 31.01470 2.23016 29788 ft 436 kts 229°
2026-05-06 06:02 30.97096 2.18123 29790 ft 437 kts 228°
2026-05-06 06:03 30.92677 2.13184 29791 ft 438 kts 228°
2026-05-06 06:03 30.88305 2.08306 29780 ft 438 kts 228°
2026-05-06 06:04 30.83896 2.03394 29790 ft 438 kts 228°
2026-05-06 06:04 30.79476 1.98475 29787 ft 439 kts 228°
2026-05-06 06:05 30.75069 1.93579 29784 ft 438 kts 228°
2026-05-06 06:05 30.70673 1.88701 29787 ft 438 kts 227°
2026-05-06 06:06 30.66224 1.83770 29798 ft 439 kts 227°
2026-05-06 06:06 30.61832 1.78911 29798 ft 440 kts 227°
2026-05-06 06:07 30.57378 1.73987 29800 ft 440 kts 227°
2026-05-06 06:07 30.52941 1.69087 29796 ft 440 kts 227°
2026-05-06 06:08 30.48529 1.64221 29795 ft 441 kts 227°
2026-05-06 06:08 30.44058 1.59301 29798 ft 441 kts 227°
2026-05-06 06:09 30.39607 1.54405 29798 ft 441 kts 227°
2026-05-06 06:09 30.35180 1.49543 29799 ft 441 kts 227°
2026-05-06 06:10 30.30667 1.44727 29802 ft 442 kts 226°
2026-05-06 06:10 30.26130 1.39935 29806 ft 442 kts 226°
2026-05-06 06:11 30.21592 1.35127 29803 ft 442 kts 226°
2026-05-06 06:11 30.17057 1.30322 29806 ft 442 kts 226°
2026-05-06 06:12 30.12604 1.25485 29805 ft 441 kts 228°
2026-05-06 06:12 30.08198 1.20515 29807 ft 441 kts 228°
2026-05-06 06:13 30.03837 1.15588 29801 ft 439 kts 228°
2026-05-06 06:13 29.99454 1.10686 29811 ft 440 kts 228°
2026-05-06 06:14 29.95052 1.05767 29805 ft 444 kts 227°
2026-05-06 06:14 29.91327 1.01616 29806 ft 445 kts 227°
2026-05-06 06:15 29.86888 0.96678 29805 ft 444 kts 227°
2026-05-06 06:15 29.81710 0.90922 29804 ft 444 kts 227°
2026-05-06 06:16 29.77981 0.86783 29802 ft 444 kts 227°
2026-05-06 06:16 29.73538 0.81855 29806 ft 444 kts 227°
2026-05-06 06:17 29.69114 0.76953 29805 ft 444 kts 227°
2026-05-06 06:17 29.64663 0.72028 29810 ft 444 kts 227°
2026-05-06 06:18 29.60188 0.67083 29806 ft 444 kts 227°
2026-05-06 06:18 29.55742 0.62178 29807 ft 444 kts 227°
2026-05-06 06:19 29.51286 0.57268 29805 ft 444 kts 227°
2026-05-06 06:19 29.46826 0.52359 29807 ft 444 kts 227°
2026-05-06 06:20 29.42385 0.47475 29803 ft 444 kts 227°
2026-05-06 06:20 29.37911 0.42565 29806 ft 444 kts 227°
2026-05-06 06:21 29.33440 0.37663 29807 ft 444 kts 227°
2026-05-06 06:21 29.28975 0.32772 29804 ft 444 kts 227°
2026-05-06 06:22 29.24677 0.27733 29805 ft 441 kts 234°
2026-05-06 06:22 29.21131 0.22015 29817 ft 440 kts 240°
2026-05-06 06:23 29.18277 0.15851 29818 ft 440 kts 245°
2026-05-06 06:23 29.15608 0.09522 29805 ft 440 kts 245°
2026-05-06 06:24 29.12931 0.03197 29803 ft 440 kts 245°
2026-05-06 06:24 29.10253 -0.03087 29804 ft 439 kts 245°
2026-05-06 06:25 29.07595 -0.09287 29804 ft 436 kts 245°
2026-05-06 06:26 29.03584 -0.18616 29805 ft 437 kts 245°
2026-05-06 06:26 29.00895 -0.24859 29812 ft 437 kts 245°
2026-05-06 06:27 28.98213 -0.31075 29808 ft 437 kts 245°
2026-05-06 06:27 28.95525 -0.37302 29810 ft 437 kts 245°
2026-05-06 06:28 28.92832 -0.43528 29818 ft 437 kts 245°
2026-05-06 06:28 28.90129 -0.49762 29812 ft 437 kts 245°
2026-05-06 06:29 28.87437 -0.55971 29822 ft 438 kts 245°
2026-05-06 06:29 28.84727 -0.62201 29816 ft 438 kts 244°
2026-05-06 06:30 28.82022 -0.68409 29814 ft 438 kts 244°
2026-05-06 06:30 28.79318 -0.74608 29822 ft 438 kts 244°
2026-05-06 06:31 28.76595 -0.80842 29828 ft 438 kts 244°
2026-05-06 06:31 28.73886 -0.87036 29817 ft 439 kts 244°
2026-05-06 06:32 28.71165 -0.93247 29824 ft 439 kts 244°
2026-05-06 06:32 28.68418 -0.99507 29819 ft 439 kts 244°
2026-05-06 06:33 28.65689 -1.05714 29820 ft 439 kts 244°
2026-05-06 06:33 28.62956 -1.11927 29826 ft 440 kts 244°
2026-05-06 06:34 28.60207 -1.18160 29823 ft 440 kts 244°
2026-05-06 06:34 28.57471 -1.24355 29825 ft 441 kts 244°
2026-05-06 06:35 28.54712 -1.30594 29825 ft 441 kts 244°
2026-05-06 06:35 28.51943 -1.36845 29837 ft 441 kts 244°
2026-05-06 06:36 28.49185 -1.43061 29846 ft 442 kts 244°
2026-05-06 06:36 28.46409 -1.49308 29831 ft 442 kts 244°
2026-05-06 06:37 28.43612 -1.55593 30192 ft 444 kts 244°
2026-05-06 06:37 28.42234 -1.58684 30558 ft 441 kts 244°
2026-05-06 06:37 28.40855 -1.61774 31005 ft 437 kts 244°
2026-05-06 06:37 28.39488 -1.64835 31376 ft 434 kts 244°
2026-05-06 06:38 28.38116 -1.67909 31653 ft 433 kts 244°
2026-05-06 06:38 28.35381 -1.74028 31798 ft 435 kts 244°
2026-05-06 06:39 28.32651 -1.80130 31828 ft 435 kts 244°
2026-05-06 06:39 28.29919 -1.86220 31833 ft 434 kts 244°
2026-05-06 06:40 28.27178 -1.92326 31829 ft 434 kts 244°
2026-05-06 06:40 28.24441 -1.98409 31832 ft 435 kts 244°
2026-05-06 06:41 28.21690 -2.04514 31835 ft 435 kts 244°
2026-05-06 06:41 28.18928 -2.10638 31835 ft 435 kts 244°
2026-05-06 06:42 28.16174 -2.16732 31831 ft 435 kts 244°
2026-05-06 06:42 28.13415 -2.22829 31833 ft 435 kts 244°
2026-05-06 06:43 28.10662 -2.28902 31825 ft 434 kts 244°
2026-05-06 06:43 28.07905 -2.34978 31832 ft 434 kts 244°
2026-05-06 06:44 28.05138 -2.41067 31835 ft 434 kts 244°
2026-05-06 06:44 28.02369 -2.47148 31834 ft 434 kts 244°
2026-05-06 06:45 27.99603 -2.53216 31835 ft 433 kts 244°
2026-05-06 06:45 27.96851 -2.59244 31833 ft 435 kts 244°
2026-05-06 06:46 27.94063 -2.65346 31837 ft 435 kts 244°
2026-05-06 06:46 27.91290 -2.71400 31835 ft 435 kts 243°
2026-05-06 06:47 27.88505 -2.77474 31831 ft 435 kts 243°
2026-05-06 06:47 27.85729 -2.83519 31854 ft 435 kts 243°
2026-05-06 06:48 27.82922 -2.89619 31850 ft 435 kts 243°
2026-05-06 06:48 27.80145 -2.95648 31859 ft 435 kts 243°
2026-05-06 06:49 27.77346 -3.01718 31857 ft 435 kts 243°
2026-05-06 06:49 27.74561 -3.07750 31853 ft 435 kts 243°
2026-05-06 06:50 27.71757 -3.13811 31846 ft 435 kts 243°
2026-05-06 06:50 27.68964 -3.19835 31862 ft 434 kts 243°
2026-05-06 06:51 27.66165 -3.25869 31852 ft 434 kts 243°
2026-05-06 06:51 27.63341 -3.31954 31848 ft 435 kts 243°
2026-05-06 06:52 27.60550 -3.37950 31850 ft 434 kts 243°
2026-05-06 06:52 27.57738 -3.43981 31858 ft 434 kts 243°
2026-05-06 06:53 27.54935 -3.49988 31842 ft 434 kts 243°
2026-05-06 06:53 27.52116 -3.56019 31852 ft 433 kts 243°
2026-05-06 06:54 27.49309 -3.62022 31856 ft 433 kts 243°
2026-05-06 06:54 27.46509 -3.67999 31857 ft 433 kts 243°
2026-05-06 06:55 27.43681 -3.74025 31855 ft 434 kts 243°
2026-05-06 06:55 27.40853 -3.80042 31852 ft 434 kts 243°
2026-05-06 06:56 27.38035 -3.86028 31849 ft 433 kts 243°
2026-05-06 06:56 27.35226 -3.91989 31863 ft 434 kts 243°
2026-05-06 06:57 27.32395 -3.97988 31862 ft 433 kts 243°
2026-05-06 06:57 27.29576 -4.03952 31861 ft 433 kts 243°
2026-05-06 06:58 27.26731 -4.09970 31858 ft 433 kts 243°
2026-05-06 06:58 27.23909 -4.15925 31857 ft 433 kts 243°
2026-05-06 06:59 27.21150 -4.21933 31867 ft 433 kts 244°
2026-05-06 06:59 27.18489 -4.27972 31862 ft 433 kts 244°
2026-05-06 07:00 27.15809 -4.34049 31863 ft 434 kts 244°
2026-05-06 07:00 27.13120 -4.40100 31859 ft 434 kts 244°
2026-05-06 07:01 27.10407 -4.46185 31863 ft 435 kts 244°
2026-05-06 07:01 27.07711 -4.52218 31865 ft 435 kts 244°
2026-05-06 07:02 27.04991 -4.58299 31863 ft 435 kts 244°
2026-05-06 07:02 27.02286 -4.64331 31861 ft 435 kts 244°
2026-05-06 07:03 26.99555 -4.70416 31863 ft 434 kts 244°
2026-05-06 07:03 26.96848 -4.76439 31866 ft 434 kts 244°
2026-05-06 07:04 26.94589 -4.81454 31874 ft 434 kts 244°
2026-05-06 07:04 26.91852 -4.87532 31874 ft 434 kts 244°
2026-05-06 07:05 26.89129 -4.93568 31869 ft 435 kts 244°
2026-05-06 07:05 26.86396 -4.99615 31870 ft 435 kts 244°
2026-05-06 07:06 26.83670 -5.05638 31872 ft 435 kts 244°
2026-05-06 07:06 26.80929 -5.11684 31870 ft 435 kts 244°
2026-05-06 07:07 26.78202 -5.17692 31871 ft 435 kts 244°
2026-05-06 07:07 26.75455 -5.23733 31869 ft 435 kts 244°
2026-05-06 07:08 26.72712 -5.29764 31870 ft 435 kts 244°
2026-05-06 07:08 26.69965 -5.35794 31867 ft 435 kts 244°
2026-05-06 07:09 26.67207 -5.41835 31875 ft 436 kts 244°
2026-05-06 07:09 26.64438 -5.47896 31872 ft 436 kts 244°
2026-05-06 07:10 26.61697 -5.53880 31869 ft 436 kts 244°
2026-05-06 07:10 26.58935 -5.59910 31886 ft 435 kts 244°
2026-05-06 07:11 26.56159 -5.65957 31904 ft 437 kts 244°
2026-05-06 07:11 26.53375 -5.72013 31908 ft 438 kts 244°
2026-05-06 07:12 26.50604 -5.78033 31905 ft 437 kts 244°
2026-05-06 07:12 26.47828 -5.84054 31910 ft 438 kts 244°
2026-05-06 07:13 26.45039 -5.90096 31908 ft 439 kts 244°
2026-05-06 07:13 26.42226 -5.96185 31898 ft 438 kts 244°
2026-05-06 07:14 26.39442 -6.02203 31898 ft 438 kts 244°
2026-05-06 07:14 26.36637 -6.08252 31900 ft 438 kts 244°
2026-05-06 07:15 26.33847 -6.14262 31895 ft 438 kts 244°
2026-05-06 07:15 26.31037 -6.20309 31897 ft 438 kts 244°
2026-05-06 07:16 26.28222 -6.26361 31896 ft 438 kts 244°
2026-05-06 07:16 26.25431 -6.32348 31893 ft 438 kts 244°
2026-05-06 07:17 26.22607 -6.38396 31891 ft 438 kts 244°
2026-05-06 07:17 26.19814 -6.44378 31886 ft 438 kts 244°
2026-05-06 07:18 26.16985 -6.50426 31891 ft 438 kts 243°
2026-05-06 07:18 26.14158 -6.56458 31889 ft 438 kts 243°
2026-05-06 07:19 26.11019 -6.62206 31894 ft 439 kts 236°
2026-05-06 07:19 26.07081 -6.67435 31896 ft 440 kts 230°
2026-05-06 07:20 26.02938 -6.72460 31885 ft 441 kts 230°
2026-05-06 07:20 25.98819 -6.77478 31892 ft 441 kts 230°
2026-05-06 07:21 25.94695 -6.82515 31893 ft 442 kts 230°
2026-05-06 07:21 25.90566 -6.87560 31908 ft 442 kts 230°
2026-05-06 07:22 25.86414 -6.92628 31917 ft 442 kts 230°
2026-05-06 07:22 25.82293 -6.97650 31916 ft 443 kts 230°
2026-05-06 07:23 25.78142 -7.02706 31913 ft 442 kts 230°
2026-05-06 07:23 25.74013 -7.07724 31920 ft 441 kts 230°
2026-05-06 07:24 25.69873 -7.12755 31920 ft 441 kts 230°
2026-05-06 07:24 25.65735 -7.17776 31920 ft 442 kts 230°
2026-05-06 07:25 25.61595 -7.22798 31914 ft 442 kts 230°
2026-05-06 07:25 25.57447 -7.27822 31912 ft 442 kts 230°
2026-05-06 07:26 25.53271 -7.32872 31913 ft 442 kts 230°
2026-05-06 07:26 25.49115 -7.37891 31921 ft 442 kts 230°
2026-05-06 07:27 25.44986 -7.42877 31920 ft 442 kts 230°
2026-05-06 07:27 25.40803 -7.47925 31914 ft 442 kts 230°
2026-05-06 07:28 25.36670 -7.52905 31925 ft 442 kts 230°
2026-05-06 07:28 25.30436 -7.60408 31913 ft 441 kts 230°
2026-05-06 07:29 25.26291 -7.65389 31921 ft 441 kts 230°
2026-05-06 07:29 25.22120 -7.70396 31922 ft 441 kts 230°
2026-05-06 07:30 25.17984 -7.75358 31918 ft 441 kts 230°
2026-05-06 07:30 25.13803 -7.80365 31918 ft 441 kts 230°
2026-05-06 07:31 25.09664 -7.85319 31915 ft 441 kts 230°
2026-05-06 07:31 25.05487 -7.90311 31916 ft 442 kts 230°
2026-05-06 07:32 25.01303 -7.95308 31914 ft 441 kts 230°
2026-05-06 07:32 24.97148 -8.00266 31910 ft 440 kts 230°
2026-05-06 07:33 24.93012 -8.05199 31921 ft 441 kts 229°
2026-05-06 07:33 24.88842 -8.10162 31913 ft 441 kts 229°
2026-05-06 07:34 24.84682 -8.15110 31917 ft 440 kts 229°
2026-05-06 07:34 24.80515 -8.20061 31932 ft 441 kts 229°
2026-05-06 07:35 24.76324 -8.25035 31919 ft 441 kts 229°
2026-05-06 07:35 24.72183 -8.29946 31924 ft 441 kts 229°
2026-05-06 07:36 24.67988 -8.34914 31927 ft 441 kts 229°
2026-05-06 07:36 24.63838 -8.39825 31923 ft 441 kts 229°
2026-05-06 07:37 24.59651 -8.44777 31923 ft 441 kts 229°
2026-05-06 07:37 24.55490 -8.49684 31919 ft 441 kts 229°
2026-05-06 07:38 24.51300 -8.54628 31915 ft 441 kts 229°
2026-05-06 07:38 24.47132 -8.59538 31915 ft 441 kts 229°
2026-05-06 07:39 24.42928 -8.64488 31915 ft 441 kts 229°
2026-05-06 07:39 24.38740 -8.69412 31922 ft 442 kts 229°
2026-05-06 07:40 24.34559 -8.74324 31913 ft 442 kts 229°
2026-05-06 07:40 24.30362 -8.79250 31920 ft 442 kts 229°
2026-05-06 07:41 24.26153 -8.84183 31914 ft 442 kts 229°
2026-05-06 07:41 24.21942 -8.89111 31923 ft 443 kts 229°
2026-05-06 07:42 24.17741 -8.94017 31919 ft 443 kts 229°
2026-05-06 07:42 24.13528 -8.98936 31931 ft 443 kts 229°
2026-05-06 07:43 24.09312 -9.03854 31922 ft 444 kts 229°
2026-05-06 07:43 24.05060 -9.08807 31929 ft 445 kts 229°
2026-05-06 07:44 24.00831 -9.13729 31924 ft 445 kts 229°
2026-05-06 07:44 23.96603 -9.18646 31933 ft 446 kts 229°
2026-05-06 07:45 23.92333 -9.23607 31926 ft 446 kts 229°
2026-05-06 07:45 23.88099 -9.28519 31930 ft 447 kts 229°
2026-05-06 07:46 23.83820 -9.33483 31922 ft 447 kts 229°
2026-05-06 07:46 23.79555 -9.38421 31926 ft 448 kts 229°
2026-05-06 07:47 23.75278 -9.43370 31923 ft 448 kts 229°
2026-05-06 07:47 23.70998 -9.48318 31936 ft 448 kts 229°
2026-05-06 07:48 23.66722 -9.53255 31920 ft 449 kts 228°
2026-05-06 07:48 23.62434 -9.58199 31931 ft 448 kts 228°
2026-05-06 07:49 23.58154 -9.63131 31930 ft 449 kts 228°
2026-05-06 07:49 23.53856 -9.68079 31945 ft 449 kts 228°
2026-05-06 07:50 23.49548 -9.73033 31929 ft 449 kts 228°
2026-05-06 07:50 23.45234 -9.77988 31947 ft 448 kts 228°
2026-05-06 07:51 23.40968 -9.82886 31949 ft 448 kts 228°
2026-05-06 07:51 23.36680 -9.87799 31935 ft 449 kts 228°
2026-05-06 07:52 23.32391 -9.92710 31940 ft 448 kts 228°
2026-05-06 07:52 23.28798 -9.96822 31948 ft 448 kts 228°
2026-05-06 07:53 23.24500 -10.01734 31946 ft 447 kts 228°
2026-05-06 07:53 23.20216 -10.06626 31947 ft 447 kts 228°
2026-05-06 07:54 23.15938 -10.11510 31947 ft 446 kts 228°
2026-05-06 07:54 23.11662 -10.16384 31951 ft 446 kts 228°
2026-05-06 07:55 23.07388 -10.21250 31949 ft 446 kts 228°
2026-05-06 07:55 23.03078 -10.26154 31953 ft 445 kts 228°
2026-05-06 07:56 22.98817 -10.30996 31957 ft 445 kts 228°
2026-05-06 07:56 22.94529 -10.35865 31952 ft 445 kts 228°
2026-05-06 07:57 22.90273 -10.40694 31953 ft 445 kts 228°
2026-05-06 07:57 22.85998 -10.45538 31951 ft 445 kts 228°
2026-05-06 07:58 22.81727 -10.50373 31953 ft 444 kts 228°
2026-05-06 07:58 22.77458 -10.55202 31956 ft 444 kts 228°
2026-05-06 07:59 22.73175 -10.60042 31953 ft 444 kts 228°
2026-05-06 07:59 22.68890 -10.64885 31957 ft 444 kts 228°
2026-05-06 08:00 22.64638 -10.69678 31954 ft 444 kts 228°
2026-05-06 08:00 22.60349 -10.74514 31956 ft 444 kts 228°
2026-05-06 08:01 22.56081 -10.79322 31953 ft 444 kts 228°
2026-05-06 08:01 22.51802 -10.84135 31954 ft 444 kts 228°
2026-05-06 08:02 22.47512 -10.88960 31949 ft 443 kts 228°
2026-05-06 08:02 22.43248 -10.93747 31947 ft 444 kts 228°
2026-05-06 08:03 22.38954 -10.98565 31933 ft 444 kts 228°
2026-05-06 08:03 22.34673 -11.03364 31948 ft 444 kts 228°
2026-05-06 08:04 22.30398 -11.08150 31947 ft 444 kts 228°
2026-05-06 08:04 22.26100 -11.12957 31929 ft 444 kts 228°
2026-05-06 08:05 22.21826 -11.17733 31936 ft 444 kts 228°
2026-05-06 08:05 22.17522 -11.22540 31950 ft 445 kts 228°
2026-05-06 08:06 22.13228 -11.27332 31949 ft 445 kts 227°
2026-05-06 08:06 22.08924 -11.32128 31933 ft 445 kts 227°
2026-05-06 08:07 22.04606 -11.36933 31952 ft 446 kts 227°
2026-05-06 08:07 22.00285 -11.41742 31947 ft 447 kts 227°
2026-05-06 08:08 21.95969 -11.46542 31946 ft 447 kts 227°
2026-05-06 08:08 21.91630 -11.51361 31950 ft 447 kts 227°
2026-05-06 08:09 21.87306 -11.56155 31943 ft 447 kts 227°
2026-05-06 08:09 21.82991 -11.60938 31944 ft 447 kts 227°
2026-05-06 08:10 21.78637 -11.65759 31948 ft 447 kts 227°
2026-05-06 08:10 21.74333 -11.70521 31947 ft 446 kts 227°
2026-05-06 08:11 21.69980 -11.75335 31960 ft 447 kts 227°
2026-05-06 08:11 21.65671 -11.80093 31964 ft 447 kts 227°
2026-05-06 08:12 21.61324 -11.84891 31962 ft 447 kts 227°
2026-05-06 08:12 21.56992 -11.89666 31963 ft 447 kts 227°
2026-05-06 08:13 21.52668 -11.94436 31964 ft 447 kts 227°
2026-05-06 08:13 21.48317 -11.99240 31963 ft 447 kts 227°
2026-05-06 08:14 21.43997 -12.04009 31962 ft 446 kts 227°
2026-05-06 08:14 21.39674 -12.08778 31951 ft 446 kts 227°
2026-05-06 08:15 21.35355 -12.13534 31949 ft 445 kts 227°
2026-05-06 08:15 21.31022 -12.18301 31930 ft 445 kts 227°
2026-05-06 08:16 21.26708 -12.23044 31926 ft 444 kts 227°
2026-05-06 08:16 21.22412 -12.27764 31929 ft 444 kts 227°
2026-05-06 08:17 21.18106 -12.32490 31945 ft 444 kts 227°
2026-05-06 08:17 21.13807 -12.37204 31934 ft 443 kts 227°
2026-05-06 08:18 21.09487 -12.41937 31946 ft 443 kts 227°
2026-05-06 08:18 21.05197 -12.46633 31940 ft 443 kts 227°
2026-05-06 08:19 21.00869 -12.51367 31946 ft 443 kts 228°
2026-05-06 08:19 20.96587 -12.56044 31920 ft 441 kts 227°
2026-05-06 08:20 20.92286 -12.60741 31946 ft 442 kts 228°
2026-05-06 08:20 20.87977 -12.65443 31938 ft 442 kts 228°
2026-05-06 08:21 20.83696 -12.70108 31946 ft 441 kts 228°
2026-05-06 08:21 20.79402 -12.74782 31951 ft 441 kts 228°
2026-05-06 08:22 20.75078 -12.79488 31948 ft 441 kts 228°
2026-05-06 08:22 20.70802 -12.84137 31950 ft 440 kts 227°
2026-05-06 08:23 20.66531 -12.88776 31929 ft 440 kts 227°
2026-05-06 08:23 20.62233 -12.93441 31946 ft 439 kts 228°
2026-05-06 08:24 20.57933 -12.98105 31948 ft 439 kts 228°
2026-05-06 08:24 20.53682 -13.02711 31950 ft 439 kts 228°
2026-05-06 08:25 20.49252 -13.07272 31950 ft 440 kts 223°
2026-05-06 08:25 20.44366 -13.11166 31948 ft 442 kts 219°
2026-05-06 08:26 20.39396 -13.15038 31946 ft 441 kts 220°
2026-05-06 08:26 20.34475 -13.18893 31936 ft 440 kts 220°
2026-05-06 08:27 20.29557 -13.22753 31949 ft 440 kts 220°
2026-05-06 08:27 20.24627 -13.26621 31950 ft 440 kts 220°
2026-05-06 08:28 20.19681 -13.30497 31950 ft 440 kts 220°
2026-05-06 08:28 20.14749 -13.34357 31932 ft 439 kts 220°
2026-05-06 08:29 20.09848 -13.38191 31948 ft 439 kts 220°
2026-05-06 08:29 20.04910 -13.42051 31955 ft 439 kts 220°
2026-05-06 08:30 19.99997 -13.45888 31933 ft 439 kts 220°
2026-05-06 08:30 19.95083 -13.49722 31954 ft 438 kts 220°
2026-05-06 08:31 19.90152 -13.53568 31945 ft 438 kts 220°
2026-05-06 08:31 19.85252 -13.57387 31947 ft 439 kts 220°
2026-05-06 08:32 19.80315 -13.61231 31938 ft 439 kts 220°
2026-05-06 08:32 19.75425 -13.65035 31947 ft 439 kts 220°
2026-05-06 08:33 19.70510 -13.68855 31948 ft 438 kts 220°
2026-05-06 08:33 19.65579 -13.72686 31931 ft 439 kts 220°
2026-05-06 08:34 19.58201 -13.78413 31946 ft 439 kts 220°
2026-05-06 08:35 19.53231 -13.82264 31932 ft 439 kts 220°
2026-05-06 08:35 19.48310 -13.86077 31947 ft 439 kts 220°
2026-05-06 08:36 19.43398 -13.89879 31950 ft 440 kts 220°
2026-05-06 08:36 19.38467 -13.93693 31954 ft 440 kts 220°
2026-05-06 08:37 19.33521 -13.97514 31947 ft 440 kts 220°
2026-05-06 08:37 19.28572 -14.01337 31951 ft 440 kts 220°
2026-05-06 08:38 19.23626 -14.05153 31944 ft 439 kts 220°
2026-05-06 08:38 19.18664 -14.08980 31946 ft 440 kts 220°
2026-05-06 08:39 19.13737 -14.12778 31950 ft 441 kts 220°
2026-05-06 08:39 19.08787 -14.16588 31947 ft 441 kts 220°
2026-05-06 08:40 19.03813 -14.20415 31948 ft 441 kts 220°
2026-05-06 08:40 18.98866 -14.24217 31947 ft 441 kts 220°
2026-05-06 08:41 18.93907 -14.28025 31947 ft 442 kts 220°
2026-05-06 08:41 18.88912 -14.31860 31950 ft 443 kts 220°
2026-05-06 08:42 18.83953 -14.35665 31941 ft 443 kts 220°
2026-05-06 08:42 18.79799 -14.38848 31946 ft 443 kts 220°
2026-05-06 08:43 18.74809 -14.42668 31944 ft 443 kts 220°
2026-05-06 08:43 18.69804 -14.46502 31948 ft 443 kts 220°
2026-05-06 08:44 18.64846 -14.50294 31935 ft 444 kts 220°
2026-05-06 08:44 18.59830 -14.54127 31947 ft 444 kts 220°
2026-05-06 08:45 18.54826 -14.57949 31947 ft 444 kts 220°
2026-05-06 08:45 18.49845 -14.61750 31946 ft 444 kts 220°
2026-05-06 08:46 18.44830 -14.65574 31929 ft 444 kts 220°
2026-05-06 08:46 18.39827 -14.69386 31928 ft 444 kts 220°
2026-05-06 08:47 18.34829 -14.73192 31933 ft 444 kts 220°
2026-05-06 08:47 18.29806 -14.77013 31947 ft 443 kts 220°
2026-05-06 08:48 18.24648 -14.80936 31938 ft 443 kts 220°
2026-05-06 08:48 18.19647 -14.84735 31935 ft 443 kts 220°
2026-05-06 08:49 18.14646 -14.88533 31944 ft 443 kts 220°
2026-05-06 08:49 18.09625 -14.92341 31922 ft 443 kts 220°
2026-05-06 08:50 18.04662 -14.96104 31943 ft 443 kts 220°
2026-05-06 08:50 17.99646 -14.99907 31950 ft 443 kts 220°
2026-05-06 08:51 17.94642 -15.03696 31949 ft 444 kts 220°
2026-05-06 08:51 17.89632 -15.07486 31949 ft 445 kts 220°
2026-05-06 08:52 17.84599 -15.11292 31946 ft 445 kts 220°
2026-05-06 08:52 17.79602 -15.15063 31942 ft 445 kts 220°
2026-05-06 08:53 17.74553 -15.18871 31949 ft 445 kts 220°
2026-05-06 08:53 17.69564 -15.22632 31929 ft 444 kts 219°
2026-05-06 08:54 17.64550 -15.26409 31952 ft 444 kts 219°
2026-05-06 08:54 17.59542 -15.30183 31946 ft 443 kts 220°
2026-05-06 08:55 17.54546 -15.33948 31946 ft 444 kts 220°
2026-05-06 08:55 17.49535 -15.37724 31951 ft 444 kts 220°
2026-05-06 08:56 17.44486 -15.41525 31950 ft 443 kts 220°
2026-05-06 08:56 17.39516 -15.45265 31946 ft 444 kts 220°
2026-05-06 08:57 17.34487 -15.49048 31952 ft 445 kts 220°
2026-05-06 08:57 17.29433 -15.52845 31949 ft 445 kts 220°
2026-05-06 08:58 17.24419 -15.56609 31947 ft 446 kts 219°
2026-05-06 08:58 17.19391 -15.60382 31949 ft 446 kts 219°
2026-05-06 08:59 17.14369 -15.64148 31948 ft 446 kts 219°
2026-05-06 08:59 17.09289 -15.67955 31948 ft 446 kts 219°
2026-05-06 09:00 17.04238 -15.71741 31945 ft 447 kts 219°
2026-05-06 09:00 16.99184 -15.75529 31946 ft 447 kts 219°
2026-05-06 09:01 16.94146 -15.79301 31943 ft 448 kts 219°
2026-05-06 09:01 16.89101 -15.83078 31941 ft 446 kts 219°
2026-05-06 09:02 16.84048 -15.86858 31952 ft 446 kts 219°
2026-05-06 09:02 16.78985 -15.90642 31954 ft 447 kts 219°
2026-05-06 09:03 16.73936 -15.94414 31953 ft 447 kts 219°
2026-05-06 09:03 16.68886 -15.98184 31956 ft 448 kts 219°
2026-05-06 09:04 16.63835 -16.01954 31956 ft 448 kts 219°
2026-05-06 09:04 16.58749 -16.05745 31952 ft 448 kts 219°
2026-05-06 09:05 16.53712 -16.09499 31952 ft 447 kts 219°
2026-05-06 09:05 16.48628 -16.13282 31953 ft 449 kts 219°
2026-05-06 09:06 16.43564 -16.17043 31955 ft 449 kts 219°
2026-05-06 09:06 16.38463 -16.20830 31954 ft 449 kts 219°
2026-05-06 09:07 16.33399 -16.24589 31966 ft 449 kts 219°
2026-05-06 09:07 16.28287 -16.28380 31961 ft 449 kts 219°
2026-05-06 09:08 16.23220 -16.32137 31963 ft 449 kts 219°
2026-05-06 09:08 16.18137 -16.35903 31961 ft 449 kts 219°
2026-05-06 09:09 16.13045 -16.39672 31963 ft 449 kts 219°
2026-05-06 09:09 16.07976 -16.43424 31962 ft 449 kts 219°
2026-05-06 09:10 16.02896 -16.47213 31962 ft 448 kts 220°
2026-05-06 09:10 15.97918 -16.51126 31961 ft 449 kts 221°
2026-05-06 09:11 15.92940 -16.55078 31966 ft 451 kts 221°
2026-05-06 09:11 15.87966 -16.59005 31961 ft 451 kts 220°
2026-05-06 09:12 15.82959 -16.62941 31964 ft 451 kts 220°
2026-05-06 09:12 15.77968 -16.66855 31964 ft 450 kts 220°
2026-05-06 09:13 15.72941 -16.70797 31964 ft 451 kts 220°
2026-05-06 09:13 15.67956 -16.74700 31963 ft 451 kts 220°
2026-05-06 09:14 15.62944 -16.78624 31964 ft 451 kts 220°
2026-05-06 09:14 15.57942 -16.82541 31963 ft 451 kts 220°
2026-05-06 09:15 15.52918 -16.86472 31964 ft 452 kts 220°
2026-05-06 09:15 15.47914 -16.90383 31963 ft 452 kts 220°
2026-05-06 09:16 15.42877 -16.94317 31962 ft 452 kts 220°
2026-05-06 09:16 15.37870 -16.98226 31964 ft 452 kts 220°
2026-05-06 09:17 15.32825 -17.02163 31963 ft 452 kts 220°
2026-05-06 09:17 15.27822 -17.06063 31963 ft 452 kts 220°
2026-05-06 09:18 15.23644 -17.09319 31963 ft 453 kts 220°
2026-05-06 09:18 15.17763 -17.13899 31964 ft 453 kts 220°
2026-05-06 09:19 15.12729 -17.17817 31963 ft 453 kts 220°
2026-05-06 09:19 15.07694 -17.21734 31962 ft 453 kts 220°
2026-05-06 09:20 15.03463 -17.25023 31964 ft 454 kts 220°
2026-05-06 09:20 14.98444 -17.28923 31962 ft 454 kts 220°
2026-05-06 09:21 14.93386 -17.32851 31963 ft 454 kts 220°
2026-05-06 09:21 14.88324 -17.36781 31973 ft 455 kts 220°
2026-05-06 09:22 14.83249 -17.40717 31965 ft 455 kts 220°
2026-05-06 09:22 14.78182 -17.44644 31963 ft 455 kts 220°
2026-05-06 09:23 14.73081 -17.48504 31960 ft 456 kts 217°
2026-05-06 09:23 14.67772 -17.52116 31967 ft 457 kts 216°
2026-05-06 09:24 14.62465 -17.55683 31964 ft 458 kts 216°
2026-05-06 09:24 14.57129 -17.59284 31962 ft 458 kts 216°
2026-05-06 09:25 14.51789 -17.62901 31963 ft 458 kts 216°
2026-05-06 09:25 14.46483 -17.66498 31964 ft 459 kts 216°
2026-05-06 09:26 14.41154 -17.70108 31962 ft 459 kts 216°
2026-05-06 09:26 14.35773 -17.73751 31965 ft 460 kts 216°
2026-05-06 09:27 14.30439 -17.77360 31963 ft 460 kts 216°
2026-05-06 09:27 14.25098 -17.80969 31964 ft 459 kts 216°
2026-05-06 09:28 14.19763 -17.84573 31963 ft 460 kts 216°
2026-05-06 09:28 14.14396 -17.88196 31964 ft 461 kts 216°
2026-05-06 09:29 14.09042 -17.91809 31963 ft 460 kts 216°
2026-05-06 09:29 14.03080 -17.95833 31964 ft 460 kts 216°
2026-05-06 09:30 13.97714 -17.99450 31964 ft 460 kts 216°
2026-05-06 09:30 13.92362 -18.03054 31963 ft 460 kts 216°
2026-05-06 09:31 13.87017 -18.06652 31964 ft 460 kts 216°
2026-05-06 09:31 13.81661 -18.10258 31963 ft 460 kts 216°
2026-05-06 09:32 13.76255 -18.13895 31957 ft 461 kts 216°
2026-05-06 09:32 13.70902 -18.17498 31955 ft 461 kts 216°
2026-05-06 09:33 13.65559 -18.21088 31953 ft 461 kts 216°
2026-05-06 09:33 13.60205 -18.24682 31954 ft 461 kts 216°
2026-05-06 09:34 13.55722 -18.27693 31953 ft 462 kts 216°
2026-05-06 09:34 13.50332 -18.31312 31954 ft 461 kts 216°
2026-05-06 09:35 13.44939 -18.34930 31956 ft 462 kts 216°
2026-05-06 09:35 13.39560 -18.38535 31953 ft 462 kts 216°
2026-05-06 09:36 13.34177 -18.42144 31955 ft 462 kts 216°
2026-05-06 09:36 13.28800 -18.45743 31954 ft 463 kts 216°
2026-05-06 09:37 13.23424 -18.49337 31953 ft 462 kts 216°
2026-05-06 09:37 13.17999 -18.52963 31955 ft 463 kts 215°
2026-05-06 09:38 13.12639 -18.56545 31954 ft 463 kts 215°
2026-05-06 09:38 13.07222 -18.60164 31957 ft 464 kts 215°
2026-05-06 09:39 13.01824 -18.63768 31951 ft 464 kts 215°
2026-05-06 09:39 12.96426 -18.67373 31956 ft 464 kts 215°
2026-05-06 09:40 12.91021 -18.70976 31951 ft 464 kts 215°
2026-05-06 09:40 12.82873 -18.76406 31954 ft 465 kts 215°
2026-05-06 09:41 12.77482 -18.79997 31954 ft 464 kts 215°
2026-05-06 09:41 12.72051 -18.83613 31959 ft 464 kts 215°
2026-05-06 09:42 12.66661 -18.87199 31962 ft 464 kts 214°
2026-05-06 09:42 12.61231 -18.90809 31965 ft 465 kts 214°
2026-05-06 09:43 12.55808 -18.94414 31962 ft 465 kts 214°
2026-05-06 09:43 12.50394 -18.98013 31964 ft 465 kts 214°
2026-05-06 09:44 12.44950 -19.01628 31964 ft 465 kts 214°
2026-05-06 09:44 12.39525 -19.05228 31963 ft 466 kts 214°
2026-05-06 09:45 12.34078 -19.08840 31967 ft 465 kts 214°
2026-05-06 09:45 12.28661 -19.12433 31973 ft 466 kts 214°
2026-05-06 09:46 12.23217 -19.16042 31970 ft 466 kts 214°
2026-05-06 09:46 12.17757 -19.19659 31972 ft 466 kts 214°
2026-05-06 09:47 12.12297 -19.23272 32303 ft 468 kts 214°
2026-05-06 09:47 12.09580 -19.25070 32636 ft 465 kts 214°
2026-05-06 09:47 12.06896 -19.26846 32954 ft 463 kts 214°
2026-05-06 09:48 12.04203 -19.28627 33271 ft 461 kts 214°
2026-05-06 09:48 12.01481 -19.30426 33545 ft 460 kts 214°
2026-05-06 09:48 11.98805 -19.32196 33769 ft 460 kts 214°
2026-05-06 09:48 11.96130 -19.33965 33892 ft 461 kts 213°
2026-05-06 09:49 11.90727 -19.37535 33964 ft 463 kts 213°
2026-05-06 09:49 11.85316 -19.41111 33972 ft 462 kts 213°
2026-05-06 09:50 11.79899 -19.44684 33977 ft 462 kts 213°
2026-05-06 09:50 11.74518 -19.48235 33983 ft 462 kts 213°
2026-05-06 09:51 11.69127 -19.51790 33981 ft 462 kts 213°
2026-05-06 09:51 11.63739 -19.55343 33981 ft 462 kts 213°
2026-05-06 09:52 11.58351 -19.58895 33981 ft 462 kts 213°
2026-05-06 09:52 11.52943 -19.62457 33981 ft 462 kts 213°
2026-05-06 09:53 11.47548 -19.66007 33981 ft 462 kts 213°
2026-05-06 09:53 11.42150 -19.69560 33982 ft 462 kts 213°
2026-05-06 09:54 11.36744 -19.73113 33981 ft 462 kts 213°
2026-05-06 09:54 11.31336 -19.76666 33983 ft 463 kts 213°
2026-05-06 09:55 11.25926 -19.80221 33980 ft 463 kts 213°
2026-05-06 09:55 11.20495 -19.83789 33982 ft 463 kts 213°
2026-05-06 09:56 11.15084 -19.87341 33982 ft 463 kts 213°
2026-05-06 09:56 11.09659 -19.90900 33983 ft 463 kts 213°
2026-05-06 09:57 11.04250 -19.94451 33984 ft 464 kts 213°
2026-05-06 09:57 10.98823 -19.98008 33980 ft 464 kts 213°
2026-05-06 09:58 10.93400 -20.01563 33981 ft 464 kts 213°
2026-05-06 09:58 10.88000 -20.05101 33982 ft 464 kts 213°
2026-05-06 09:59 10.82542 -20.08675 33982 ft 464 kts 213°
2026-05-06 09:59 10.77110 -20.12232 33980 ft 465 kts 213°
2026-05-06 10:00 10.71662 -20.15794 33983 ft 465 kts 213°
2026-05-06 10:00 10.66222 -20.19351 33982 ft 465 kts 213°
2026-05-06 10:01 10.60800 -20.22895 33982 ft 465 kts 213°
2026-05-06 10:01 10.55367 -20.26445 33981 ft 465 kts 213°
2026-05-06 10:02 10.49935 -20.29993 33981 ft 465 kts 213°
2026-05-06 10:02 10.44465 -20.33564 33984 ft 466 kts 213°
2026-05-06 10:03 10.39030 -20.37110 33981 ft 466 kts 213°
2026-05-06 10:03 10.33574 -20.40669 33982 ft 466 kts 213°
2026-05-06 10:04 10.28115 -20.44229 33981 ft 466 kts 213°
2026-05-06 10:04 10.22670 -20.47778 33980 ft 466 kts 213°
2026-05-06 10:05 10.17197 -20.51342 33981 ft 466 kts 213°
2026-05-06 10:05 10.11767 -20.54881 33982 ft 466 kts 213°
2026-05-06 10:06 10.06297 -20.58440 33981 ft 466 kts 213°
2026-05-06 10:06 10.00818 -20.62004 33982 ft 466 kts 213°
2026-05-06 10:07 9.95366 -20.65549 33980 ft 468 kts 213°
2026-05-06 10:07 9.89898 -20.69105 33984 ft 469 kts 213°
2026-05-06 10:08 9.84407 -20.72676 33980 ft 469 kts 213°
2026-05-06 10:08 9.78888 -20.76259 33979 ft 469 kts 213°
2026-05-06 10:09 9.73421 -20.79808 33984 ft 470 kts 213°
2026-05-06 10:09 9.67874 -20.83408 33980 ft 470 kts 213°
2026-05-06 10:10 9.62395 -20.86964 33982 ft 470 kts 213°
2026-05-06 10:10 9.56890 -20.90537 33981 ft 471 kts 213°
2026-05-06 10:11 9.51359 -20.94121 33982 ft 471 kts 213°
2026-05-06 10:11 9.45860 -20.97684 33984 ft 471 kts 213°
2026-05-06 10:12 9.40306 -21.01283 33982 ft 472 kts 213°
2026-05-06 10:12 9.34778 -21.04864 33982 ft 471 kts 213°
2026-05-06 10:13 9.29255 -21.08441 33982 ft 472 kts 213°
2026-05-06 10:13 9.23743 -21.12006 33981 ft 473 kts 213°
2026-05-06 10:14 9.18186 -21.15599 33982 ft 472 kts 212°
2026-05-06 10:14 9.12681 -21.19159 33982 ft 472 kts 213°
2026-05-06 10:15 9.07111 -21.22758 33981 ft 473 kts 212°
2026-05-06 10:15 9.01582 -21.26331 33989 ft 473 kts 212°
2026-05-06 10:16 8.96012 -21.29931 33992 ft 474 kts 212°
2026-05-06 10:16 8.90460 -21.33514 33990 ft 473 kts 212°
2026-05-06 10:17 8.84942 -21.37075 33990 ft 473 kts 212°
2026-05-06 10:17 8.79397 -21.40653 33990 ft 474 kts 212°
2026-05-06 10:18 8.73817 -21.44251 33991 ft 475 kts 212°
2026-05-06 10:18 8.68246 -21.47840 33989 ft 475 kts 212°
2026-05-06 10:19 8.62665 -21.51439 33989 ft 474 kts 212°
2026-05-06 10:19 8.57137 -21.55003 33989 ft 474 kts 212°
2026-05-06 10:20 8.51579 -21.58582 33993 ft 475 kts 212°
2026-05-06 10:20 8.46000 -21.62171 33988 ft 475 kts 212°
2026-05-06 10:21 8.40430 -21.65757 33990 ft 476 kts 212°
2026-05-06 10:21 8.35745 -21.68771 33991 ft 476 kts 212°
2026-05-06 10:22 8.30189 -21.72346 33992 ft 476 kts 212°
2026-05-06 10:22 8.24604 -21.75937 33991 ft 476 kts 212°
2026-05-06 10:23 8.19000 -21.79538 33991 ft 476 kts 212°
2026-05-06 10:23 8.13400 -21.83137 33992 ft 476 kts 212°
2026-05-06 10:24 8.07825 -21.86717 33989 ft 476 kts 212°
2026-05-06 10:24 8.02249 -21.90297 33992 ft 476 kts 212°
2026-05-06 10:25 7.96643 -21.93896 33989 ft 476 kts 212°
2026-05-06 10:25 7.91068 -21.97471 33989 ft 476 kts 212°
2026-05-06 10:26 7.85503 -22.01041 33993 ft 476 kts 212°
2026-05-06 10:26 7.79898 -22.04637 33990 ft 476 kts 212°
2026-05-06 10:27 7.74315 -22.08215 33991 ft 476 kts 212°
2026-05-06 10:27 7.68724 -22.11798 33991 ft 476 kts 212°
2026-05-06 10:28 7.63124 -22.15386 33989 ft 477 kts 212°
2026-05-06 10:28 7.57505 -22.18984 33989 ft 477 kts 212°
2026-05-06 10:29 7.51887 -22.22582 33993 ft 477 kts 212°
2026-05-06 10:29 7.46293 -22.26162 33991 ft 477 kts 212°
2026-05-06 10:30 7.40677 -22.29754 33991 ft 478 kts 212°
2026-05-06 10:30 7.35085 -22.33332 33991 ft 478 kts 212°
2026-05-06 10:31 7.29461 -22.36929 33990 ft 479 kts 212°
2026-05-06 10:31 7.23862 -22.40511 33989 ft 479 kts 212°
2026-05-06 10:32 7.18230 -22.44109 33990 ft 480 kts 211°
2026-05-06 10:32 7.12560 -22.47727 33990 ft 480 kts 211°
2026-05-06 10:33 7.06933 -22.51323 33992 ft 480 kts 212°
2026-05-06 10:33 7.01299 -22.54923 33991 ft 481 kts 211°
2026-05-06 10:34 6.95645 -22.58530 33990 ft 481 kts 211°
2026-05-06 10:34 6.89984 -22.62143 33990 ft 481 kts 211°
2026-05-06 10:35 6.84327 -22.65751 33988 ft 481 kts 211°
2026-05-06 10:35 6.78669 -22.69358 33992 ft 482 kts 211°
2026-05-06 10:36 6.72990 -22.72980 33991 ft 483 kts 211°
2026-05-06 10:36 6.67347 -22.76578 33991 ft 483 kts 211°
2026-05-06 10:37 6.61682 -22.80190 33992 ft 482 kts 211°
2026-05-06 10:37 6.56009 -22.83802 33990 ft 483 kts 211°
2026-05-06 10:38 6.50310 -22.87431 33993 ft 483 kts 211°
2026-05-06 10:38 6.44645 -22.91040 33990 ft 483 kts 211°
2026-05-06 10:39 6.38984 -22.94645 33989 ft 483 kts 211°
2026-05-06 10:39 6.33312 -22.98254 33991 ft 483 kts 211°
2026-05-06 10:40 6.27588 -23.01891 33990 ft 483 kts 211°
2026-05-06 10:40 6.21942 -23.05479 33991 ft 483 kts 211°
2026-05-06 10:41 6.16247 -23.09096 33991 ft 483 kts 211°
2026-05-06 10:41 6.10584 -23.12695 33990 ft 483 kts 211°
2026-05-06 10:42 6.04872 -23.16325 33989 ft 483 kts 211°
2026-05-06 10:42 5.99223 -23.19911 33993 ft 483 kts 211°
2026-05-06 10:43 5.93519 -23.23531 33989 ft 486 kts 211°
2026-05-06 10:44 5.84919 -23.28993 33989 ft 486 kts 211°
2026-05-06 10:44 5.79225 -23.32607 33992 ft 485 kts 211°
2026-05-06 10:45 5.73545 -23.36209 33991 ft 485 kts 211°
2026-05-06 10:45 5.67847 -23.39823 33990 ft 485 kts 211°
2026-05-06 10:46 5.62116 -23.43455 33992 ft 485 kts 211°
2026-05-06 10:46 5.56429 -23.47061 33991 ft 485 kts 211°
2026-05-06 10:47 5.50703 -23.50690 33991 ft 485 kts 211°
2026-05-06 10:47 5.44982 -23.54315 34007 ft 486 kts 211°
2026-05-06 10:48 5.39253 -23.57943 34007 ft 486 kts 211°
2026-05-06 10:48 5.33541 -23.61561 34008 ft 486 kts 211°
2026-05-06 10:49 5.27848 -23.65165 34012 ft 487 kts 211°
2026-05-06 10:49 5.22106 -23.68800 34010 ft 487 kts 211°
2026-05-06 10:50 5.16375 -23.72429 34010 ft 488 kts 211°
2026-05-06 10:50 5.10652 -23.76051 34011 ft 488 kts 211°
2026-05-06 10:51 5.04925 -23.79672 34004 ft 488 kts 211°
2026-05-06 10:51 4.99155 -23.83323 34012 ft 489 kts 211°
2026-05-06 10:52 4.93417 -23.86951 34007 ft 489 kts 211°
2026-05-06 10:52 4.87672 -23.90582 34008 ft 490 kts 211°
2026-05-06 10:53 4.81866 -23.94253 34010 ft 490 kts 211°
2026-05-06 10:53 4.76127 -23.97878 34009 ft 491 kts 211°
2026-05-06 10:54 4.70308 -24.01556 34008 ft 491 kts 212°
2026-05-06 10:54 4.64528 -24.05208 34012 ft 491 kts 212°
2026-05-06 10:55 4.58729 -24.08872 34011 ft 492 kts 212°
2026-05-06 10:55 4.52950 -24.12523 34018 ft 492 kts 212°
2026-05-06 10:56 4.47154 -24.16173 34011 ft 493 kts 211°
2026-05-06 10:56 4.41369 -24.19833 34002 ft 493 kts 212°
2026-05-06 10:57 4.35540 -24.23511 34006 ft 493 kts 212°
2026-05-06 10:57 4.29765 -24.27153 34009 ft 494 kts 212°
2026-05-06 10:58 4.23952 -24.30821 34009 ft 494 kts 212°
2026-05-06 10:58 4.18135 -24.34491 34013 ft 494 kts 212°
2026-05-06 10:59 4.12314 -24.38165 34006 ft 494 kts 212°
2026-05-06 10:59 4.06483 -24.41839 34014 ft 494 kts 212°
2026-05-06 11:00 4.00664 -24.45507 34010 ft 494 kts 212°
2026-05-06 11:00 3.94876 -24.49156 34011 ft 494 kts 212°
2026-05-06 11:01 3.89053 -24.52826 34008 ft 495 kts 212°
2026-05-06 11:01 3.83252 -24.56481 34013 ft 494 kts 212°
2026-05-06 11:02 3.77414 -24.60160 34006 ft 494 kts 212°
2026-05-06 11:02 3.71617 -24.63812 34011 ft 494 kts 212°
2026-05-06 11:03 3.65782 -24.67487 34007 ft 494 kts 212°
2026-05-06 11:03 3.59983 -24.71139 34014 ft 494 kts 212°
2026-05-06 11:04 3.54172 -24.74796 34021 ft 494 kts 212°
2026-05-06 11:04 3.48341 -24.78468 34000 ft 493 kts 212°
2026-05-06 11:05 3.42555 -24.82110 34013 ft 493 kts 212°
2026-05-06 11:05 3.36713 -24.85786 34010 ft 494 kts 212°
2026-05-06 11:06 3.30888 -24.89453 34009 ft 494 kts 212°
2026-05-06 11:06 3.25111 -24.93086 34002 ft 493 kts 212°
2026-05-06 11:07 3.19282 -24.96753 34010 ft 494 kts 212°
2026-05-06 11:07 3.13500 -25.00389 34008 ft 494 kts 212°
2026-05-06 11:08 3.08615 -25.03462 34011 ft 494 kts 212°
2026-05-06 11:08 3.02825 -25.07105 34007 ft 493 kts 212°
2026-05-06 11:09 2.97039 -25.10743 34010 ft 493 kts 212°
2026-05-06 11:09 2.91221 -25.14400 34008 ft 493 kts 212°
2026-05-06 11:10 2.85406 -25.18055 34006 ft 493 kts 212°
2026-05-06 11:10 2.79591 -25.21711 34010 ft 493 kts 212°
2026-05-06 11:11 2.73771 -25.25370 34011 ft 494 kts 212°
2026-05-06 11:11 2.67955 -25.29023 34012 ft 494 kts 212°
2026-05-06 11:12 2.62174 -25.32656 34011 ft 494 kts 212°
2026-05-06 11:12 2.56334 -25.36325 34009 ft 494 kts 212°
2026-05-06 11:13 2.50534 -25.39967 34005 ft 494 kts 212°
2026-05-06 11:13 2.44696 -25.43635 34007 ft 494 kts 212°
2026-05-06 11:14 2.38881 -25.47286 34012 ft 494 kts 212°
2026-05-06 11:14 2.33073 -25.50934 34012 ft 494 kts 212°
2026-05-06 11:15 2.27277 -25.54575 34009 ft 494 kts 212°
2026-05-06 11:15 2.21435 -25.58245 34009 ft 494 kts 212°
2026-05-06 11:16 2.15658 -25.61868 34009 ft 494 kts 212°
2026-05-06 11:16 2.09808 -25.65540 34004 ft 494 kts 212°
2026-05-06 11:17 2.04024 -25.69170 34011 ft 494 kts 212°
2026-05-06 11:17 1.98192 -25.72832 34009 ft 494 kts 212°
2026-05-06 11:18 1.92371 -25.76484 34014 ft 494 kts 212°
2026-05-06 11:18 1.86560 -25.80132 34007 ft 494 kts 212°
2026-05-06 11:19 1.80718 -25.83799 34009 ft 494 kts 212°
2026-05-06 11:19 1.74937 -25.87425 34011 ft 493 kts 212°
2026-05-06 11:20 1.69082 -25.91098 34005 ft 494 kts 212°
2026-05-06 11:20 1.63273 -25.94742 34010 ft 494 kts 212°
2026-05-06 11:21 1.57482 -25.98376 34008 ft 494 kts 212°
2026-05-06 11:21 1.51638 -26.02041 34009 ft 494 kts 212°
2026-05-06 11:22 1.45855 -26.05669 34012 ft 494 kts 212°
2026-05-06 11:22 1.40022 -26.09329 34011 ft 494 kts 212°
2026-05-06 11:23 1.34162 -26.13004 34005 ft 494 kts 212°
2026-05-06 11:23 1.28358 -26.16645 34012 ft 495 kts 212°
2026-05-06 11:24 1.21928 -26.20678 34011 ft 495 kts 212°
2026-05-06 11:24 1.16090 -26.24336 34006 ft 495 kts 211°
2026-05-06 11:25 1.10262 -26.27990 34006 ft 495 kts 211°
2026-05-06 11:25 1.05410 -26.31034 34010 ft 496 kts 211°
2026-05-06 11:26 0.99541 -26.34717 34008 ft 496 kts 211°
2026-05-06 11:26 0.93720 -26.38368 34007 ft 496 kts 211°
2026-05-06 11:27 0.87905 -26.42014 34006 ft 496 kts 211°
2026-05-06 11:27 0.82018 -26.45706 34004 ft 496 kts 211°
2026-05-06 11:28 0.76206 -26.49352 34014 ft 496 kts 211°
2026-05-06 11:28 0.70368 -26.53014 34009 ft 497 kts 211°
2026-05-06 11:29 0.64509 -26.56688 33998 ft 497 kts 211°
2026-05-06 11:29 0.58647 -26.60365 33998 ft 496 kts 211°
2026-05-06 11:30 0.52813 -26.64023 33999 ft 497 kts 211°
2026-05-06 11:30 0.46968 -26.67689 34004 ft 497 kts 211°
2026-05-06 11:31 0.41118 -26.71357 34006 ft 497 kts 211°
2026-05-06 11:31 0.35238 -26.75046 33992 ft 497 kts 211°
2026-05-06 11:32 0.29413 -26.78697 33999 ft 497 kts 211°
2026-05-06 11:32 0.23549 -26.82374 34003 ft 497 kts 211°
2026-05-06 11:33 0.17715 -26.86032 33999 ft 497 kts 212°
2026-05-06 11:33 0.11852 -26.89709 34001 ft 497 kts 212°
2026-05-06 11:34 0.05984 -26.93388 34001 ft 497 kts 212°
2026-05-06 11:34 0.00132 -26.97057 34001 ft 497 kts 212°
2026-05-06 11:35 -0.05714 -27.00725 34000 ft 497 kts 212°
2026-05-06 11:35 -0.11584 -27.04406 34002 ft 498 kts 212°
2026-05-06 11:36 -0.17422 -27.08068 33999 ft 498 kts 212°
2026-05-06 11:36 -0.23301 -27.11755 34001 ft 498 kts 212°
2026-05-06 11:37 -0.29180 -27.15431 34000 ft 498 kts 211°
2026-05-06 11:37 -0.35073 -27.19066 34001 ft 497 kts 211°
2026-05-06 11:38 -0.40936 -27.22681 34000 ft 497 kts 211°
2026-05-06 11:38 -0.46819 -27.26317 34002 ft 497 kts 211°
2026-05-06 11:39 -0.52739 -27.29978 34000 ft 497 kts 211°
2026-05-06 11:39 -0.58589 -27.33598 34000 ft 497 kts 211°
2026-05-06 11:40 -0.64447 -27.37263 34002 ft 497 kts 212°
2026-05-06 11:40 -0.70322 -27.40958 34000 ft 498 kts 212°
2026-05-06 11:41 -0.76194 -27.44651 33999 ft 498 kts 212°
2026-05-06 11:41 -0.82059 -27.48333 33999 ft 497 kts 212°
2026-05-06 11:42 -0.87930 -27.52017 34002 ft 498 kts 212°
2026-05-06 11:42 -0.93754 -27.55671 33998 ft 498 kts 212°
2026-05-06 11:43 -0.99635 -27.59363 33999 ft 498 kts 212°
2026-05-06 11:43 -1.05499 -27.63045 33999 ft 498 kts 212°
2026-05-06 11:44 -1.14301 -27.68569 34000 ft 498 kts 212°
2026-05-06 11:44 -1.20148 -27.72237 34000 ft 498 kts 212°
2026-05-06 11:45 -1.25986 -27.75904 34004 ft 498 kts 212°
2026-05-06 11:45 -1.31870 -27.79600 34002 ft 498 kts 212°
2026-05-06 11:46 -1.37719 -27.83271 33996 ft 498 kts 212°
2026-05-06 11:46 -1.43584 -27.86954 34003 ft 498 kts 212°
2026-05-06 11:47 -1.49481 -27.90657 33998 ft 498 kts 212°
2026-05-06 11:47 -1.55312 -27.94318 34001 ft 498 kts 212°
2026-05-06 11:48 -1.61164 -27.97993 33999 ft 498 kts 212°
2026-05-06 11:48 -1.67051 -28.01691 34001 ft 498 kts 212°
2026-05-06 11:49 -1.72917 -28.05374 34001 ft 498 kts 212°
2026-05-06 11:49 -1.78756 -28.09043 33999 ft 498 kts 212°
2026-05-06 11:50 -1.84633 -28.12736 34001 ft 498 kts 212°
2026-05-06 11:50 -1.90523 -28.16436 33999 ft 498 kts 212°
2026-05-06 11:51 -1.96373 -28.20112 34001 ft 498 kts 212°
2026-05-06 11:51 -2.02221 -28.23785 34000 ft 498 kts 212°
2026-05-06 11:52 -2.08095 -28.27477 34001 ft 498 kts 212°
2026-05-06 11:52 -2.13935 -28.31147 34001 ft 498 kts 212°
2026-05-06 11:53 -2.19815 -28.34842 34001 ft 499 kts 212°
2026-05-06 11:53 -2.25677 -28.38529 33998 ft 499 kts 212°
2026-05-06 11:54 -2.31564 -28.42230 33999 ft 499 kts 212°
2026-05-06 11:54 -2.37461 -28.45936 34004 ft 500 kts 212°
2026-05-06 11:55 -2.43360 -28.49643 33996 ft 500 kts 212°
2026-05-06 11:55 -2.49237 -28.53341 34006 ft 500 kts 212°
2026-05-06 11:56 -2.55124 -28.57043 33996 ft 500 kts 212°
2026-05-06 11:56 -2.60991 -28.60734 34001 ft 500 kts 212°
2026-05-06 11:57 -2.66906 -28.64456 34000 ft 501 kts 212°
2026-05-06 11:57 -2.72790 -28.68156 34002 ft 501 kts 212°
2026-05-06 11:58 -2.78696 -28.71876 34000 ft 502 kts 212°
2026-05-06 11:58 -2.84614 -28.75598 34002 ft 502 kts 212°
2026-05-06 11:59 -2.90518 -28.79313 33999 ft 502 kts 212°
2026-05-06 11:59 -2.96427 -28.83034 34001 ft 502 kts 212°
2026-05-06 12:00 -3.02332 -28.86751 34004 ft 502 kts 212°
2026-05-06 12:00 -3.08261 -28.90483 33996 ft 502 kts 212°
2026-05-06 12:01 -3.14177 -28.94210 34003 ft 503 kts 212°
2026-05-06 12:01 -3.20087 -28.97935 34004 ft 505 kts 213°
2026-05-06 12:02 -3.25981 -29.01646 33991 ft 497 kts 213°
2026-05-06 12:02 -3.31823 -29.05328 33988 ft 494 kts 213°
2026-05-06 12:03 -3.37629 -29.08989 33987 ft 496 kts 213°
2026-05-06 12:03 -3.43482 -29.12680 33991 ft 496 kts 213°
2026-05-06 12:04 -3.49339 -29.16374 33988 ft 496 kts 213°
2026-05-06 12:04 -3.55176 -29.20056 33993 ft 496 kts 213°
2026-05-06 12:05 -3.60996 -29.23726 33990 ft 496 kts 213°
2026-05-06 12:05 -3.66826 -29.27402 33988 ft 496 kts 213°
2026-05-06 12:06 -3.72708 -29.31110 33991 ft 496 kts 213°
2026-05-06 12:06 -3.78507 -29.34764 33991 ft 496 kts 213°
2026-05-06 12:07 -3.84340 -29.38438 33992 ft 496 kts 213°
2026-05-06 12:07 -3.90212 -29.42141 33988 ft 496 kts 213°
2026-05-06 12:08 -3.96045 -29.45823 34002 ft 496 kts 213°
2026-05-06 12:08 -4.01877 -29.49504 34000 ft 496 kts 213°
2026-05-06 12:09 -4.07697 -29.53174 34000 ft 495 kts 213°
2026-05-06 12:09 -4.13512 -29.56843 34000 ft 495 kts 213°
2026-05-06 12:10 -4.19336 -29.60520 33999 ft 495 kts 213°
2026-05-06 12:10 -4.25166 -29.64202 34000 ft 495 kts 213°
2026-05-06 12:11 -4.30988 -29.67876 34001 ft 495 kts 213°
2026-05-06 12:11 -4.36840 -29.71573 34000 ft 495 kts 213°
2026-05-06 12:12 -4.42646 -29.75240 34002 ft 495 kts 214°
2026-05-06 12:12 -4.48464 -29.78917 33999 ft 495 kts 214°
2026-05-06 12:13 -4.54286 -29.82594 34002 ft 495 kts 214°
2026-05-06 12:13 -4.59147 -29.85666 33999 ft 494 kts 214°
2026-05-06 12:14 -4.64955 -29.89340 34001 ft 494 kts 214°
2026-05-06 12:14 -4.70748 -29.93002 34000 ft 494 kts 214°
2026-05-06 12:15 -4.76573 -29.96684 34001 ft 493 kts 214°
2026-05-06 12:15 -4.82369 -30.00350 34000 ft 493 kts 214°
2026-05-06 12:16 -4.88163 -30.04016 34000 ft 493 kts 214°
2026-05-06 12:16 -4.93985 -30.07699 34010 ft 493 kts 214°
2026-05-06 12:17 -4.99776 -30.11366 34009 ft 493 kts 214°
2026-05-06 12:17 -5.05548 -30.15020 34010 ft 492 kts 214°
2026-05-06 12:18 -5.11355 -30.18698 34011 ft 492 kts 214°
2026-05-06 12:18 -5.17139 -30.22360 34011 ft 491 kts 214°
2026-05-06 12:19 -5.22908 -30.26013 34010 ft 491 kts 214°
2026-05-06 12:19 -5.28669 -30.29662 34012 ft 491 kts 214°
2026-05-06 12:20 -5.34453 -30.33329 34011 ft 491 kts 214°
2026-05-06 12:20 -5.40203 -30.36976 34010 ft 491 kts 215°
2026-05-06 12:21 -5.45999 -30.40650 34016 ft 491 kts 214°
2026-05-06 12:21 -5.51779 -30.44315 34006 ft 491 kts 214°
2026-05-06 12:22 -5.57527 -30.47961 34006 ft 490 kts 214°
2026-05-06 12:22 -5.63292 -30.51619 34013 ft 490 kts 215°
2026-05-06 12:23 -5.69065 -30.55283 34007 ft 490 kts 215°
2026-05-06 12:23 -5.74800 -30.58922 34009 ft 490 kts 215°
2026-05-06 12:24 -5.80569 -30.62586 34007 ft 490 kts 215°
2026-05-06 12:24 -5.86371 -30.66271 34012 ft 490 kts 215°
2026-05-06 12:25 -5.92121 -30.69924 34010 ft 491 kts 215°
2026-05-06 12:25 -5.97857 -30.73571 34005 ft 491 kts 215°
2026-05-06 12:26 -6.04045 -30.77499 34008 ft 491 kts 215°
2026-05-06 12:26 -6.09826 -30.81173 34012 ft 492 kts 215°
2026-05-06 12:27 -6.15574 -30.84829 34009 ft 492 kts 215°
2026-05-06 12:27 -6.21371 -30.88518 34012 ft 492 kts 215°
2026-05-06 12:28 -6.27147 -30.92192 34010 ft 492 kts 215°
2026-05-06 12:28 -6.32952 -30.95887 34010 ft 492 kts 215°
2026-05-06 12:29 -6.38716 -30.99556 34011 ft 493 kts 215°
2026-05-06 12:29 -6.44515 -31.03249 34010 ft 493 kts 215°
2026-05-06 12:30 -6.50304 -31.06936 34017 ft 493 kts 215°
2026-05-06 12:30 -6.56118 -31.10641 34017 ft 493 kts 215°
2026-05-06 12:31 -6.61932 -31.14347 34018 ft 494 kts 215°
2026-05-06 12:31 -6.67699 -31.18022 34013 ft 494 kts 215°
2026-05-06 12:32 -6.73517 -31.21732 34026 ft 494 kts 216°
2026-05-06 12:32 -6.79315 -31.25430 34016 ft 494 kts 216°
2026-05-06 12:33 -6.85153 -31.29154 34020 ft 494 kts 216°
2026-05-06 12:33 -6.90921 -31.32835 34019 ft 494 kts 216°
2026-05-06 12:34 -6.96748 -31.36554 34018 ft 495 kts 216°
2026-05-06 12:34 -7.02553 -31.40261 34021 ft 495 kts 216°
2026-05-06 12:35 -7.08389 -31.43989 34016 ft 495 kts 216°